Content
SEND FEEDBACK

Daily
Averages
Monthly
Summary
United Kingdom

WORTHING, ENGLAND


Home > Europe > United Kingdom > England
Elevation: 13 feet     Latitude: 50 49N     Longitude: 000 55W

WEATHER
 
SELECT A DAY
Number of Records: 192,487;   Date Range: 7/1/96 - 7/9/14
 
SHARE

PRINT THIS DATA

[ ← Previous Day ]
WEATHER ALMANAC - NOVEMBER 21, 2013
[ Next Day → ]
[ °C ]   °F
Weather ElementAverageHighLow
Temperature41.5 °F44.6 °F (1:20 pm)37.4 °F (7:50 pm)
Dewpoint34.6 °F37.4 °F (6:20 am)32 °F (2:50 pm)
Humidity77 %87 % (6:20 am)61 % (2:50 pm)
Barometer29.72 in29.92 in (9:20 pm)29.47 in (6:20 am)
Wind Speed12.9 mph23 mph (7:50 am)
Wind Gust38 mph (7:50 am)
Weather ElementAverage
Visibility6.2 mi
Wind DirectionSE (129.7 °)

Weather ElementTotal
Precipitation---
Heating Degree Days24 (Base 65)
Averaged from 33 records on November 21, 2013
WEATHER CONDITIONS BREAKOUT
WIND DIRECTION BREAKOUT
WEATHER BY HOUR - NOVEMBER 21, 2013
[ °C ]   °F
Local TimeTemperatureDewpointHumidityBarometerVisibilityWind DirectionWind SpeedGust SpeedPrecipitationEventsConditions
6:20 AM41.0 °F37.4 °F87 %29.47 in6.2 miNNW (330°)17.3 mph29.9 mphScattered Clouds
6:50 AM41.0 °F37.4 °F87 %29.50 in6.2 miNorth (350°)16.1 mphScattered Clouds
7:20 AM41.0 °F37.4 °F87 %29.50 in6.2 miNorth (350°)17.3 mphScattered Clouds
7:50 AM41.0 °F35.6 °F81 %29.53 in6.2 miNorth (360°)23.0 mph38.0 mphScattered Clouds
8:20 AM41.0 °F35.6 °F81 %29.53 in6.2 miNorth (360°)17.3 mph29.9 mphScattered Clouds
8:50 AM42.8 °F35.6 °F76 %29.56 in6.2 miNorth (360°)17.3 mph33.4 mphScattered Clouds
9:20 AM41.0 °F35.6 °F81 %29.56 in6.2 miNorth (10°)17.3 mphMostly Cloudy
9:50 AM42.8 °F35.6 °F76 %29.59 in6.2 miNorth (10°)17.3 mphMostly Cloudy
10:20 AM42.8 °F35.6 °F76 %29.62 in6.2 miNNE (20°)15.0 mphMostly Cloudy
10:50 AM42.8 °F35.6 °F76 %29.65 in6.2 miNNE (20°)18.4 mph33.4 mphMostly Cloudy
11:20 AM42.8 °F35.6 °F76 %29.65 in6.2 miNNE (20°)11.5 mphMostly Cloudy
11:50 AM42.8 °F35.6 °F76 %29.68 in6.2 miNNE (20°)15.0 mphMostly Cloudy
12:20 PM42.8 °F35.6 °F76 %29.68 in6.2 miNNE (20°)13.8 mph26.5 mphMostly Cloudy
12:50 PM42.8 °F35.6 °F76 %29.71 in6.2 miNNE (30°)11.5 mphMostly Cloudy
1:20 PM44.6 °F35.6 °F71 %29.71 in6.2 miNNE (20°)15.0 mphMostly Cloudy
1:50 PM44.6 °F33.8 °F66 %29.71 in6.2 miNNE (30°)11.5 mphMostly Cloudy
2:20 PM44.6 °F33.8 °F66 %29.74 in6.2 miNNE (20°)12.7 mphMostly Cloudy
2:50 PM44.6 °F32.0 °F61 %29.74 in6.2 miNNE (20°)11.5 mphPartly Cloudy
3:20 PM44.6 °F32.0 °F61 %29.74 in6.2 miNNE (20°)12.7 mph24.2 mphPartly Cloudy
3:50 PM42.8 °F32.0 °F66 %29.77 in6.2 miNNE (20°)11.5 mphPartly Cloudy
4:20 PM41.0 °F32.0 °F70 %29.77 in6.2 miNNE (20°)8.1 mphPartly Cloudy
4:50 PM42.8 °F33.8 °F70 %29.80 in6.2 miNorth (10°)9.2 mphPartly Cloudy
5:20 PM41.0 °F32.0 °F70 %29.80 in6.2 miNorth (10°)9.2 mphPartly Cloudy
5:50 PM41.0 °F33.8 °F76 %29.83 in6.2 miNorth (360°)9.2 mphPartly Cloudy
6:20 PM41.0 °F35.6 °F81 %29.83 in6.2 miNorth (10°)9.2 mphPartly Cloudy
6:50 PM39.2 °F35.6 °F87 %29.86 in6.2 miNorth (10°)9.2 mphPartly Cloudy
7:20 PM39.2 °F33.8 °F81 %29.86 inNorth (10°)10.4 mphClear
7:50 PM37.4 °F33.8 °F87 %29.89 inNorth (10°)9.2 mphClear
8:20 PM37.4 °F33.8 °F87 %29.89 inNorth (360°)8.1 mphClear
8:50 PM37.4 °F33.8 °F87 %29.89 inNorth (360°)8.1 mphClear
9:20 PM39.2 °F33.8 °F81 %29.92 inNorth (360°)10.4 mphClear
9:50 PM39.2 °F33.8 °F81 %29.92 inNorth (10°)10.4 mphClear
10:20 PM39.2 °F33.8 °F81 %29.92 inNorth (360°)10.4 mphClear
Hourly data recorded from EGHI, located miles away from Worthing, England







STORIES FROM OUR PARTNERS